STARLINK-32185 (60341 NORAD) Tracking and Keplerian Element Data

This shows tracking and keplerian element data for the satellite.

Feedback or suggestion? Click here.




ElementValue
Catalog60341
NameSTARLINK-32185
Epoch Orbit1113
Epoch Day286.75900438
Epoch Year2024
RAAN298.097
Inclination53.1623
Eccentricity0.0001323
Argument of Perigee98.5329
Mean Anonmoly261.5821
Mean Motion15.30044912
Decay Rate-0.00053327
L11 60341U 24136N 24286.75900438 -.00053327 00000+0 -18099-2 0 9998
L22 60341 53.1623 298.0970 0001323 98.5329 261.5821 15.30044912 11136



Live tracking and technical data element details for STARLINK-32185 (NORAD 60341). STARLINK-32185 can be tracked NOW for your location showing map with azimuth and elevation plus other details from your city location.







IsCatalogInMostPopularTable: catalog: 60341, numindb: 6
Update: records affected: 1



GetName: 60341 STARLINK-32185

Hit Count: updated at: Tue, 03 Dec 2024 01:54:40 GMT